Vertical_Velocity
-3 -2 -3 -2 -1 -2 -2 -3 -8 -9 0 4 -7 1 1 2 1 -2 -3 -4 4 3 -2 -3 -2 -3 -2 -2 -2 -2 -1 -1 -0 2 1 1 -0 -2
-1 -2 -1 -2 -2 -0 -1 -1 -2 -9 -15 -5 3 -1 -3 0 1 -0 -1 1 -1 3 6 1 -1 -0 -1 -0 -1 -0 -2 -1 0 -1 0 3 -0 -0
-2 -4 -0 -3 -1 -1 -2 -2 -2 -3 -13 10 -2 1 1 -2 -3 -2 -0 -1 -1 0 2 5 3 -1 -0 -1 1 -0 -0 -2 -1 1 2 0 2 2
-0 -1 -1 1 1 -0 -2 -1 -3 -0 -8 -6 2 0 -4 -2 -1 -2 -2 -3 -5 -1 -3 -1 3 2 0 3 4 3 1 1 -2 -1 0 2 -0 2
-1 -3 -1 -3 -0 -1 -1 -1 -2 0 -2 -10 -3 -2 -1 -0 -4 -4 -2 -5 -4 -6 -4 -2 -2 -1 2 -2 1 5 5 3 1 -2 1 2 2 1
-3 -2 -1 -1 -3 -3 -5 -2 -1 -2 -2 -5 -4 -4 -3 3 -3 -6 -3 -2 -0 2 -3 -5 -3 -3 -4 0 -2 0 4 6 2 1 2 3 3 3
0 1 0 -3 -3 -3 -4 -0 -3 -4 -3 -4 -5 -4 1 -3 -5 -6 -9 -3 -0 1 -7 2 -2 1 3 1 -5 -4 -2 1 5 5 -2 5 2 3
-4 -4 -3 -3 -2 -3 -3 -1 1 -5 -2 -3 -2 -3 1 -4 0 -3 -4 -8 -19 13 -2 -9 2 1 7 3 5 -2 -9 1 -3 2 5 -0 4 4
-1 -0 -1 -2 -3 -3 -1 -2 -1 2 0 0 -5 2 -7 6 3 -1 0 -4 -7 -6 -4 -26 8 -10 10 2 8 5 3 -8 1 -4 1 5 2 3
-1 -1 0 0 -1 -4 -4 -1 0 -2 2 2 1 -7 -1 -2 5 5 -4 -2 -8 -1 5 -20 5 -5 1 -4 1 6 8 8 3 -2 -3 -2 6 2
-0 1 -0 -4 1 4 -7 -8 -2 3 1 -0 1 0 -2 3 7 -1 0 -2 -11 2 7 -13 8 -10 -3 3 -1 -2 9 5 6 13 0 -5 2 -0
6 1 3 -1 -4 -0 -3 -3 -7 2 -4 1 4 3 3 2 2 6 3 -6 2 11 5 -7 1 -0 -10 9 5 2 4 2 1 6 13 7 -4 -1
-5 1 2 4 1 -2 1 -2 -2 -3 1 -4 -5 -3 0 -1 -1 4 2 -1 -10 -8 6 -8 -2 3 5 -7 3 3 5 6 8 2 7 10 7 3
-0 0 1 3 0 1 1 3 -0 -5 -6 -6 -5 -1 -2 -2 -0 0 -0 3 4 -7 0 -1 -5 0 2 0 4 1 5 6 7 5 5 7 13 11
-2 0 -0 3 2 1 4 -1 0 -2 -3 -3 -1 0 -1 -2 -1 -2 1 -3 -3 1 1 2 -4 5 4 -4 -2 -2 0 1 1 4 4 7 11 7
-2 -2 -1 -0 2 -3 -3 2 1 1 1 -0 -0 0 0 -1 -1 -2 -4 -3 -3 4 4 3 -3 -3 1 2 -3 1 4 1 -1 -1 2 4 5 4
-5 -2 -3 0 -1 -1 2 2 3 1 0 1 -1 1 1 -1 1 -0 -2 -1 -3 -3 1 6 -1 -2 -0 -1 -3 5 4 0 0 -0 -1 4 6 4
-5 -2 -1 1 -0 -0 -1 1 1 1 2 1 -1 -1 -2 -1 -1 1 -2 -3 -2 0 -1 -1 0 -2 -2 3 -2 -2 5 2 -0 -2 -1 -1 4 7
-0 2 0 2 1 -1 -1 -1 0 -0 1 1 -1 0 -1 -1 -1 -1 0 -2 -0 -1 0 -1 2 -0 -3 2 3 1 3 3 1 1 -0 1 2 3
5 3 1 2 0 -2 -1 2 -1 0 0 -0 -0 0 -0 -1 -0 -0 -1 -1 -2 -0 0 -1 -0 1 -1 -2 -1 8 1 1 1 0 0 -0 2 0
2 2 2 3 1 0 -0 -0 0 1 1 -1 1 -0 1 -1 2 -0 -0 -1 -2 -1 -1 1 -1 -2 -0 -3 -1 1 1 1 0 1 3 2 1 1
-0 1 1 1 2 2 1 0 -1 1 1 -0 -0 -0 0 -1 -1 1 0 -1 0 -2 -3 0 -0 -2 -1 -1 0 -0 1 2 1 0 1 1 2 2
-1 -1 2 3 3 2 1 1 -0 -0 0 0 1 1 1 0 -0 0 0 -1 -0 -0 -2 -1 -1 -1 -1 -0 -0 -1 -2 -0 2 2 1 1 1 -0
Height
3088 3086 3083 3080 3077 3073 3070 3066 3060 3051 3048 3050 3051 3057 3053 3047 3045 3041 3038 3036 3036 3034 3034 3034 3034 3032 3030 3029 3028 3028 3028 3028 3028 3028 3030 3031 3030 3031
3079 3075 3072 3069 3066 3063 3060 3056 3052 3046 3037 3037 3034 3031 3034 3038 3034 3030 3027 3024 3022 3021 3022 3019 3020 3020 3019 3018 3017 3016 3016 3017 3018 3019 3020 3022 3023 3023
3068 3065 3061 3058 3055 3052 3048 3045 3041 3037 3029 3025 3024 3020 3017 3013 3017 3018 3016 3013 3009 3008 3008 3006 3005 3006 3006 3005 3005 3005 3006 3005 3006 3008 3010 3012 3014 3016
3057 3054 3052 3047 3043 3040 3036 3033 3029 3025 3019 3012 3009 3007 3005 3002 2999 2997 2999 2999 2996 2995 2994 2993 2991 2991 2992 2995 2995 2994 2993 2994 2995 2996 2999 3002 3004 3006
3046 3042 3038 3035 3032 3028 3025 3020 3016 3011 3006 3001 2996 2994 2990 2987 2985 2983 2982 2980 2980 2981 2980 2978 2978 2977 2978 2978 2979 2980 2981 2983 2983 2984 2987 2990 2994 2996
3034 3030 3027 3022 3018 3014 3009 3005 3001 2996 2992 2988 2984 2980 2977 2975 2973 2968 2966 2966 2964 2965 2965 2965 2965 2963 2963 2964 2966 2966 2967 2970 2971 2972 2975 2978 2982 2986
3022 3019 3014 3009 3004 3000 2995 2991 2987 2982 2980 2976 2972 2969 2966 2963 2959 2957 2952 2951 2951 2949 2947 2951 2950 2950 2950 2951 2951 2952 2955 2956 2959 2961 2963 2966 2971 2974
3009 3004 2999 2995 2992 2988 2985 2981 2977 2971 2968 2965 2962 2959 2956 2953 2951 2947 2944 2940 2938 2941 2936 2937 2936 2936 2935 2935 2936 2938 2942 2944 2946 2950 2952 2955 2959 2962
2996 2991 2987 2984 2980 2976 2973 2970 2967 2964 2960 2955 2951 2950 2947 2945 2942 2939 2936 2932 2930 2930 2924 2922 2924 2924 2923 2921 2921 2923 2925 2931 2934 2937 2942 2945 2948 2952
2986 2981 2977 2974 2971 2966 2962 2958 2956 2953 2949 2946 2943 2941 2939 2937 2934 2931 2928 2924 2921 2920 2916 2911 2913 2913 2912 2911 2911 2910 2912 2914 2918 2926 2931 2935 2939 2942
2976 2973 2968 2964 2961 2957 2951 2948 2945 2943 2940 2936 2934 2933 2931 2929 2927 2923 2921 2916 2912 2911 2908 2906 2905 2902 2903 2903 2901 2902 2902 2903 2906 2908 2918 2925 2929 2932
2965 2962 2959 2955 2952 2948 2943 2939 2936 2933 2929 2927 2926 2924 2922 2920 2919 2915 2912 2908 2906 2902 2902 2899 2897 2895 2893 2894 2893 2893 2894 2896 2898 2902 2902 2911 2919 2923
2954 2952 2948 2945 2942 2939 2936 2931 2928 2925 2922 2919 2916 2915 2913 2911 2909 2907 2904 2902 2899 2896 2896 2892 2890 2889 2886 2885 2886 2886 2887 2888 2890 2893 2897 2899 2905 2914
2944 2941 2938 2934 2932 2930 2927 2924 2920 2917 2914 2912 2909 2907 2904 2902 2900 2898 2896 2894 2892 2890 2889 2888 2884 2883 2881 2879 2879 2880 2880 2881 2883 2884 2888 2893 2895 2902
2932 2930 2926 2924 2922 2921 2918 2915 2912 2909 2906 2904 2902 2899 2896 2893 2891 2889 2887 2885 2883 2882 2881 2881 2878 2877 2875 2873 2873 2874 2874 2876 2878 2879 2882 2884 2888 2892
2919 2917 2914 2912 2912 2910 2908 2906 2903 2901 2899 2897 2895 2892 2889 2887 2884 2881 2879 2876 2875 2874 2873 2872 2872 2870 2870 2869 2869 2870 2870 2871 2873 2875 2876 2879 2882 2885
2907 2904 2901 2901 2900 2900 2898 2896 2894 2893 2891 2890 2887 2885 2883 2880 2878 2875 2873 2871 2868 2866 2866 2866 2865 2864 2863 2864 2865 2865 2865 2865 2867 2869 2872 2874 2876 2879
2894 2891 2890 2889 2888 2888 2887 2886 2884 2884 2883 2881 2879 2878 2875 2873 2871 2869 2867 2866 2864 2863 2861 2860 2859 2858 2859 2860 2860 2861 2860 2861 2862 2863 2864 2867 2870 2873
2883 2881 2879 2878 2877 2877 2876 2875 2874 2874 2873 2872 2871 2869 2868 2866 2864 2862 2861 2860 2859 2858 2857 2856 2854 2854 2854 2854 2855 2856 2856 2856 2857 2858 2859 2861 2865 2868
2874 2872 2870 2868 2867 2866 2866 2866 2865 2864 2863 2863 2862 2861 2859 2858 2856 2855 2854 2853 2853 2853 2852 2852 2851 2849 2849 2849 2850 2853 2851 2852 2853 2854 2855 2856 2859 2862
2865 2863 2861 2860 2858 2857 2857 2856 2855 2855 2854 2854 2853 2852 2851 2849 2849 2848 2847 2847 2846 2846 2846 2846 2846 2845 2845 2844 2846 2847 2848 2848 2849 2850 2851 2852 2854 2857
2858 2856 2854 2852 2851 2849 2848 2847 2846 2846 2845 2845 2844 2844 2843 2842 2841 2841 2841 2841 2840 2840 2839 2839 2840 2840 2840 2840 2841 2843 2844 2844 2845 2846 2847 2848 2850 2851
2852 2850 2848 2846 2844 2843 2841 2840 2839 2838 2837 2837 2837 2836 2835 2834 2834 2834 2834 2835 2834 2833 2833 2833 2833 2834 2835 2835 2837 2838 2840 2841 2841 2842 2843 2843 2844 2846